Weather History for Ambler, AK

Change the Weather History Date:

Wednesday, March 20, 2013

  Actual Average Record
Temperature  
Mean Temperature -6 °F -  
Max Temperature 1 °F 10 °F 41 °F (1998)
Min Temperature -14 °F 0 °F -27 °F (1997)
Degree Days  
Heating Degree Days 72    
Moisture  
Dew Point -13 °F    
Average Humidity 70    
Maximum Humidity 78    
Minimum Humidity 54    
Precipitation  
Precipitation 0.00 in - - ()
Sea Level Pressure  
Sea Level Pressure 29.94 in    
Wind  
Wind Speed 2 mph (East)    
Max Wind Speed 7 mph    
Max Gust Speed -    
Visibility 8 miles    
Events      
Averages and records for this station are not official NWS values.
T = Trace of Precipitation, MM = Missing Value Source: NWS Daily Summary

Daily Weather History Graph

Daily Weather History Graph

Search for Another Location

Airport:

Trip Planner

Search our weather history database for the weather conditions in past years. The results will help you decide how hot, cold, wet, or windy it might be!

Date:

Astronomy

Mar. 20, 2013 Rise Set
Actual Time 8:29 AM AKDT 8:49 PM AKDT
Civil Twilight 7:35 AM AKDT 9:43 PM AKDT
Nautical Twilight 6:28 AM AKDT 10:51 PM AKDT
Astronomical Twilight 5:07 AM AKDT 12:14 AM AKDT
Moon 11:58 AM AKDT (3/20) 6:56 AM AKDT (3/20)
Length of Visible Light 14h 08m
Length of Day
12h 20m
First Quarter, 60% of the Moon is Illuminated
Mar 20
First Quarter
Mar 27
Full
Apr 2
Last Quarter
Apr 10
New
Apr 18
First Quarter

Hourly Weather History & Observations

Time (AKDT) Temp. Windchill Dew Point Humidity Pressure Visibility Wind Dir Wind Speed Gust Speed Precip Events Conditions
12:16 AM -5.8 °F - -16.6 °F 60% 30.11 in 10.0 mi Calm Calm - N/A   Clear
12:36 AM -5.8 °F - -16.6 °F 60% 30.11 in 10.0 mi Calm Calm - N/A   Clear
12:56 AM -7.6 °F - -18.4 °F 59% 30.10 in 10.0 mi Calm Calm - N/A   Clear
1:16 AM -9.4 °F - -18.4 °F 65% 30.10 in 10.0 mi Calm Calm - N/A   Clear
1:36 AM -11.2 °F -20.6 °F -20.2 °F 64% 30.09 in 10.0 mi SSW 3.5 mph - N/A   Clear
1:56 AM -11.2 °F - -20.2 °F 64% 30.09 in 10.0 mi Calm Calm - N/A   Clear
2:16 AM -11.2 °F - -18.4 °F 70% 30.08 in 10.0 mi Calm Calm - N/A   Clear
2:36 AM -11.2 °F - -18.4 °F 70% 30.07 in 10.0 mi Calm Calm - N/A   Clear
2:56 AM -11.2 °F - -23.8 °F 54% 30.07 in 10.0 mi Calm Calm - N/A   Clear
3:16 AM -11.2 °F - -16.6 °F 77% 30.06 in 10.0 mi Calm Calm - N/A   Clear
3:36 AM -11.2 °F - -20.2 °F 64% 30.05 in 10.0 mi Calm Calm - N/A   Clear
3:56 AM -11.2 °F - -18.4 °F 70% 30.05 in 10.0 mi Calm Calm - N/A   Clear
4:16 AM -11.2 °F - -18.4 °F 70% 30.04 in 10.0 mi Calm Calm - N/A   Clear
4:36 AM -11.2 °F - -20.2 °F 64% 30.03 in 10.0 mi Calm Calm - N/A   Clear
4:56 AM -9.4 °F - -16.6 °F 71% 30.03 in 10.0 mi Calm Calm - N/A   Scattered Clouds
5:16 AM -9.4 °F - -18.4 °F 65% 30.02 in 10.0 mi Calm Calm - N/A   Mostly Cloudy
5:36 AM -11.2 °F - -18.4 °F 70% 30.01 in 10.0 mi Calm Calm - N/A   Overcast
5:56 AM -11.2 °F - -16.6 °F 77% 30.00 in 4.0 mi Calm Calm - N/A   Overcast
6:16 AM -11.2 °F - -18.4 °F 70% 30.00 in 0.5 mi Calm Calm - N/A   Overcast
6:36 AM -11.2 °F - -16.6 °F 77% 29.99 in 0.5 mi Calm Calm - N/A   Overcast
6:56 AM -11.2 °F - -20.2 °F 64% 29.99 in 0.8 mi Calm Calm - N/A   Overcast
7:16 AM -11.2 °F -20.6 °F -16.6 °F 77% 29.98 in 1.8 mi NE 3.5 mph - N/A   Overcast
7:36 AM -13.0 °F -25.1 °F -23.8 °F 59% 29.97 in 5.0 mi North 4.6 mph - N/A   Overcast
7:56 AM -11.2 °F -20.6 °F -20.2 °F 64% 29.96 in 10.0 mi North 3.5 mph - N/A   Overcast
8:16 AM -11.2 °F -23.0 °F -18.4 °F 70% 29.96 in 10.0 mi NNE 4.6 mph - N/A   Scattered Clouds
8:36 AM -11.2 °F -20.6 °F -20.2 °F 64% 29.95 in 10.0 mi NE 3.5 mph - N/A   Clear
8:56 AM -14.8 °F -27.2 °F -23.8 °F 64% 29.95 in 10.0 mi NNE 4.6 mph - N/A   Partly Cloudy
9:16 AM -14.8 °F -27.2 °F -23.8 °F 64% 29.94 in 10.0 mi NE 4.6 mph - N/A   Clear
9:36 AM -14.8 °F -27.2 °F -23.8 °F 64% 29.94 in 10.0 mi NNE 4.6 mph - N/A   Clear
9:56 AM -11.2 °F -20.6 °F -18.4 °F 70% 29.93 in 10.0 mi NNE 3.5 mph - N/A   Clear
10:16 AM -11.2 °F -20.6 °F -18.4 °F 70% 29.92 in 10.0 mi NE 3.5 mph - N/A   Clear
10:36 AM -9.4 °F -18.6 °F -16.6 °F 71% 29.92 in 10.0 mi NNE 3.5 mph - N/A   Mostly Cloudy
10:56 AM -9.4 °F -18.6 °F -16.6 °F 71% 29.92 in 10.0 mi NNE 3.5 mph - N/A   Overcast
11:16 AM -7.6 °F - -13.0 °F 77% 29.91 in 10.0 mi Calm Calm - N/A   Overcast
11:36 AM -5.8 °F -14.5 °F -14.8 °F 65% 29.91 in 10.0 mi ENE 3.5 mph - N/A   Overcast
11:56 AM -5.8 °F - -11.2 °F 77% 29.90 in 10.0 mi Calm Calm - N/A   Overcast
12:16 PM -4.0 °F - -11.2 °F 71% 29.90 in 10.0 mi Calm Calm - N/A   Overcast
12:36 PM -2.2 °F - -9.4 °F 71% 29.90 in 10.0 mi Calm Calm - N/A   Overcast
12:56 PM -0.4 °F - -7.6 °F 72% 29.90 in 10.0 mi Calm Calm - N/A   Partly Cloudy
1:16 PM -0.4 °F -8.3 °F -5.8 °F 78% 29.89 in 10.0 mi SE 3.5 mph - N/A   Partly Cloudy
1:36 PM 1.4 °F - -5.8 °F 72% 29.89 in 10.0 mi Calm Calm - N/A   Mostly Cloudy
1:56 PM -0.4 °F - -5.8 °F 78% 29.89 in 10.0 mi Calm Calm - N/A   Overcast
2:16 PM -0.4 °F -8.3 °F -7.6 °F 72% 29.89 in 10.0 mi South 3.5 mph - N/A   Overcast
2:36 PM -0.4 °F -10.4 °F -5.8 °F 78% 29.89 in 10.0 mi SSE 4.6 mph - N/A   Mostly Cloudy
2:56 PM -0.4 °F -8.3 °F -7.6 °F 72% 29.89 in 10.0 mi South 3.5 mph - N/A   Partly Cloudy
3:16 PM -0.4 °F -12.0 °F -5.8 °F 78% 29.89 in 10.0 mi South 5.8 mph - N/A   Clear
3:36 PM -0.4 °F -13.4 °F -7.6 °F 72% 29.88 in 10.0 mi South 6.9 mph - N/A   Scattered Clouds
3:56 PM -0.4 °F -10.4 °F -7.6 °F 72% 29.88 in 10.0 mi South 4.6 mph - N/A   Overcast
4:16 PM -0.4 °F -13.4 °F -7.6 °F 72% 29.88 in 10.0 mi South 6.9 mph - N/A   Overcast
4:36 PM -0.4 °F -10.4 °F -7.6 °F 72% 29.87 in 10.0 mi South 4.6 mph - N/A   Overcast
4:56 PM -0.4 °F -13.4 °F -7.6 °F 72% 29.87 in 9.0 mi SSE 6.9 mph - N/A   Overcast
5:16 PM -2.2 °F -15.6 °F -11.2 °F 66% 29.87 in 5.0 mi South 6.9 mph - N/A   Overcast
5:36 PM -2.2 °F -12.5 °F -9.4 °F 71% 29.88 in 6.0 mi South 4.6 mph - N/A   Overcast
5:56 PM -2.2 °F -12.5 °F -9.4 °F 71% 29.88 in 9.0 mi South 4.6 mph - N/A   Overcast
6:16 PM -2.2 °F -12.5 °F -11.2 °F 66% 29.87 in 5.0 mi SE 4.6 mph - N/A   Mostly Cloudy
6:36 PM -0.4 °F - -7.6 °F 72% 29.87 in 4.0 mi Calm Calm - N/A   Overcast
6:56 PM -0.4 °F -8.3 °F -9.4 °F 66% 29.87 in 3.0 mi SSE 3.5 mph - N/A   Overcast
7:16 PM -0.4 °F - -7.6 °F 72% 29.87 in 3.0 mi Calm Calm - N/A   Overcast
7:36 PM -0.4 °F - -7.6 °F 72% 29.87 in 1.8 mi Calm Calm - N/A   Overcast
7:56 PM -0.4 °F - -7.6 °F 72% 29.87 in 2.5 mi Calm Calm - N/A   Overcast
8:16 PM -0.4 °F -8.3 °F -7.6 °F 72% 29.87 in 2.5 mi ESE 3.5 mph - N/A   Overcast
8:36 PM -0.4 °F -8.3 °F -7.6 °F 72% 29.87 in 3.0 mi East 3.5 mph - N/A   Overcast
8:56 PM -0.4 °F -10.4 °F -7.6 °F 72% 29.87 in 10.0 mi NE 4.6 mph - N/A   Mostly Cloudy
9:16 PM -0.4 °F -10.4 °F -7.6 °F 72% 29.87 in 10.0 mi ENE 4.6 mph - N/A   Overcast
9:36 PM -0.4 °F -12.0 °F -9.4 °F 66% 29.87 in 7.0 mi NE 5.8 mph - N/A   Mostly Cloudy
9:56 PM -0.4 °F -10.4 °F -7.6 °F 72% 29.87 in 2.5 mi NE 4.6 mph - N/A   Overcast
10:16 PM -0.4 °F -8.3 °F -9.4 °F 66% 29.87 in 3.0 mi NE 3.5 mph - N/A   Overcast
10:36 PM -2.2 °F -12.5 °F -7.6 °F 78% 29.87 in 3.0 mi NNE 4.6 mph - N/A   Overcast
10:56 PM -2.2 °F -15.6 °F -9.4 °F 71% 29.87 in 4.0 mi NNE 6.9 mph - N/A   Overcast
11:16 PM -2.2 °F -14.2 °F -9.4 °F 71% 29.88 in 5.0 mi NE 5.8 mph - N/A   Mostly Cloudy
11:36 PM -2.2 °F -14.2 °F -9.4 °F 71% 29.88 in 5.0 mi NNE 5.8 mph - N/A   Overcast
11:56 PM -2.2 °F -12.5 °F -9.4 °F 71% 29.89 in 4.0 mi NNE 4.6 mph - N/A   Overcast